Home > Time Zones > World Clock > Weather > U.S.A. > Mesa > Past weeks

Flag for U.S.A. Weather past 2 weeks in Mesa, Arizona, U.S.A.

Now
59 °F

Clear.


Feels Like: 57 °F
Forecast: 55 / 67 °F
Wind: 12 mph from Southwest

Location: Williams Gateway Airport

Current Time: Feb 28, 2015 at 1:04:29 AM

Latest Report: Feb 28, 2015 at 12:15 AM


Visibility: 10 mi

Pressure: 29.73 "Hg

Humidity: 45%

Dew point: 37 °F

Location of MesaLocation

Historic Weather in Mesa — Graph

°F

Mesa temperature yesterday

Maximum temperature yesterday: 75 °F (at 2:47 PM)
Minimum temperature yesterday: 43 °F (at 4:15 AM)
Average temperature yesterday: 55 °F

Past Weeks' High & Low Weather Summary

 TemperatureHumidityPressure
High79 °F (Feb 14, 2:47 PM)100% (Feb 24, 3:15 AM)30.22 "Hg (Feb 24, 3:15 AM)
Low39 °F (Feb 25, 5:47 AM)13% (Feb 17, 3:47 PM)29.65 "Hg (Feb 27, 3:47 PM)
Average57 °F54%29.99 "Hg
* Reported Feb 12 11:47 PM — Feb 27 11:47 PM, Mesa, Weather by CustomWeather, © 2015

Note: Actual official high and low records may vary slightly from our data, if they occured in-between our weather recording intervals... More about our weather records

Advertising

Mesa weather history for previous 24 hours

 ConditionsComfort  
Time TempWeatherWind HumidityBarometerVisibility
11:47 PM
Fri, Feb 27
61 °FPassing clouds.7 mph45%29.73 "Hg20 mi
10:55 PM61 °FPassing clouds.12 mph42%29.73 "Hg20 mi
9:47 PM61 °FPassing clouds.9 mph45%29.71 "Hg20 mi
8:47 PM61 °FPassing clouds.8 mph48%29.70 "Hg20 mi
7:47 PM64 °FPassing clouds.6 mph40%29.67 "Hg20 mi
6:47 PM68 °FPassing clouds.10 mph28%29.66 "Hg20 mi
5:50 PM72 °FPartly sunny.12 mph22%29.65 "Hg45 mi
3:47 PM75 °FPassing clouds.18 mph19%29.65 "Hg45 mi
2:47 PM75 °FPassing clouds.14 mph19%29.67 "Hg45 mi
1:47 PM73 °FScattered clouds.8 mph19%29.70 "Hg45 mi
12:47 PM72 °FScattered clouds.10 mph22%29.74 "Hg45 mi
11:47 AM70 °FPassing clouds.12 mph21%29.76 "Hg45 mi
10:47 AM66 °FScattered clouds.12 mph26%29.79 "Hg45 mi
9:55 AM63 °FScattered clouds.10 mph32%29.80 "Hg45 mi
8:47 AM54 °FScattered clouds.8 mph47%29.80 "Hg45 mi
7:47 AM45 °FScattered clouds.8 mph61%29.79 "Hg20 mi
6:47 AM43 °FPassing clouds.7 mph61%29.78 "Hg45 mi
5:47 AM43 °FClear.8 mph61%29.78 "Hg20 mi
4:51 AM45 °FClear.7 mph57%29.77 "Hg20 mi
4:35 AM43 °FClear.8 mph66%29.77 "Hg10 mi
4:15 AM43 °FClear.8 mph66%29.77 "Hg10 mi
3:55 AM45 °FClear.9 mph61%29.77 "Hg10 mi
3:35 AM46 °FClear.9 mph53%29.77 "Hg10 mi
3:15 AM46 °FClear.9 mph53%29.78 "Hg10 mi
2:55 AM46 °FClear.9 mph53%29.78 "Hg10 mi
2:35 AM46 °FClear.8 mph53%29.78 "Hg10 mi
2:15 AM46 °FClear.9 mph53%29.78 "Hg10 mi
1:55 AM46 °FClear.8 mph57%29.79 "Hg10 mi
1:35 AM48 °FClear.9 mph50%29.79 "Hg10 mi
1:15 AM46 °FClear.9 mph53%29.79 "Hg10 mi
Weather by CustomWeather, © 2015

See weather overviewHow to use our weather pages